[[{"header":{"parameterUnit":"m.s-1","parameterCategory":1,"la1":30.2991,"la2":30.254,"lo1":-89.0895,"lo2":-89.0444,"dy":0.0017,"dx":0.0017,"nx":28,"ny":28,"refTime":"2024-06-15T03:00:00:Z","depth":0,"parameterNumber":2,"parameterNumberName":"U-component_of_WINDS"},"data":[0,0,0,0,0,0,0,0,0,0,0,0,0,0,0,0,0,0,0,0,0,0,0,0,0,0,0,0,0,0,0,0,0,0,0,0,0,0,0,0,0,0,0,0,0,0,0,0,0,0,0,0,0,0,0,0,0,0,1.2034,1.2034,0,1.2064,1.2064,1.2065,1.2081,1.2081,1.2081,1.2081,1.211,1.2111,1.2112,0,0,0,0,0,0,0,0,0,0,0,0,0,1.1987,1.1988,1.2034,1.2034,1.2034,1.2064,1.2064,1.2065,1.2081,1.2081,1.2081,1.2081,1.211,1.2111,1.2112,0,0,0,0,0,0,0,0,0,0,0,0,0,1.2011,1.1988,1.2033,1.2046,1.2048,1.2064,1.2064,1.2065,1.2081,1.2081,1.2081,1.2081,1.211,1.2111,1.2112,1.2117,0,0,1.2115,1.2116,0,0,0,0,0,0,0,0,1.201,1.2013,1.2044,1.2045,1.2047,1.2069,1.2059,1.2082,1.2081,1.2068,1.2081,1.2081,1.2096,1.2098,1.2104,1.2118,1.212,1.2115,1.2116,1.2116,1.2117,0,0,0,0,0,0,0,1.2008,1.2012,1.2045,1.2044,1.2046,1.2049,1.2053,1.2063,1.2081,1.2069,1.2071,1.2074,1.2097,1.2103,1.2105,1.212,1.2115,1.2116,1.2117,1.2117,1.2139,1.2139,0,0,0,0,0,0,1.2005,1.201,1.2045,1.2046,1.2028,1.205,1.2054,1.2062,1.2081,1.2085,1.2074,1.2075,1.2101,1.2103,1.2106,1.2113,1.2116,1.2117,1.2118,1.2139,1.2139,1.2139,0,0,0,0,0,0,1.2004,1.2008,1.2043,1.2029,1.2034,1.2051,1.2059,1.2062,1.2068,1.2085,1.2088,1.2077,1.2101,1.2104,1.2114,1.2114,1.2118,1.2119,1.2139,1.2139,1.2139,1.2127,0,0,0,0,0,0,1.2002,1.2007,1.201,1.2029,1.2034,1.2052,1.2059,1.2063,1.207,1.2071,1.2088,1.2091,1.2101,1.2112,1.2115,1.2116,1.212,1.2139,1.2139,1.2139,1.2127,1.2126,1.2125,0,0,0,0,0,1.2001,1.2005,1.201,1.2014,1.2038,1.2052,1.2055,1.2067,1.207,1.2073,1.2083,1.2091,1.2113,1.2113,1.2116,1.2117,1.214,1.2139,1.2139,1.2128,1.2126,1.2125,0,0,0,0,0,0,1.1986,1.2008,1.2014,1.2025,1.2036,1.2055,1.2058,1.2066,1.2076,1.2077,1.2091,1.2095,1.2103,1.2111,1.211,1.2123,1.2127,1.2128,1.2117,1.2116,1.2115,1.2113,1.2121,0,0,0,0,0,1.1984,1.1994,1.2012,1.202,1.2026,1.2041,1.2047,1.2056,1.2068,1.2073,1.2084,1.2095,1.2105,1.2111,1.2121,1.2128,1.2132,1.213,1.2129,1.2129,1.2129,1.2133,1.2132,1.2139,1.2139,1.2139,0,0,1.198,1.1993,1.1998,1.2017,1.2027,1.2036,1.2045,1.2054,1.2061,1.2074,1.2084,1.2093,1.2106,1.2114,1.2119,1.2121,1.2128,1.2128,1.2128,1.2128,1.2132,1.2132,1.2131,1.2139,1.2139,1.2139,0,0,1.1977,1.1988,1.1996,1.2006,1.2021,1.2031,1.2032,1.205,1.2056,1.2066,1.2076,1.2084,1.21,1.2109,1.2116,1.2115,1.2122,1.2118,1.2113,1.2116,1.2116,1.2116,1.2115,1.2114,1.2118,1.2118,1.2118,0,1.197,1.1985,1.1999,1.2007,1.2015,1.2028,1.2034,1.2043,1.206,1.2065,1.2068,1.2088,1.2098,1.2108,1.2108,1.2113,1.2115,1.2116,1.2115,1.2115,1.2115,1.2114,1.2114,1.2117,1.2117,1.2118,1.2118,0,1.1975,1.1985,1.1989,1.2006,1.2014,1.2022,1.2035,1.2042,1.2049,1.2058,1.2068,1.208,1.2092,1.2095,1.2103,1.2107,1.2108,1.2113,1.2117,1.2113,1.2113,1.2113,1.2117,1.2117,1.2117,1.2117,0,0,1.1965,1.1988,1.199,1.1997,1.2014,1.2022,1.2029,1.2042,1.2047,1.2058,1.2064,1.2077,1.2082,1.2089,1.2097,1.2101,1.2099,1.2105,1.2105,1.2103,1.2103,1.2099,1.2098,1.2103,1.2103,1.2103,1.2101,0,1.1964,1.198,1.1992,1.2002,1.2011,1.2023,1.2029,1.204,1.2049,1.2057,1.2066,1.2075,1.208,1.2085,1.2088,1.2098,1.2099,1.2098,1.2108,1.2109,1.2105,1.2098,1.2094,1.2092,1.2101,1.2101,1.2101,0,1.1966,1.1977,1.1989,1.2004,1.2008,1.2014,1.2026,1.2034,1.2046,1.2052,1.206,1.2068,1.2076,1.2079,1.209,1.2089,1.2094,1.2099,1.2099,1.2101,1.2105,1.2099,1.2092,1.2091,1.2101,1.2101,1.2101,0,1.1957,1.1975,1.1984,1.199,1.2008,1.2012,1.2019,1.2031,1.2038,1.2048,1.2052,1.2062,1.2068,1.2075,1.2086,1.2088,1.2095,1.21,1.2099,1.2099,1.21,1.21,1.2093,1.2103,1.2103,1.2103,1.2103,0,1.1955,1.1962,1.198,1.1985,1.1992,1.2005,1.2012,1.202,1.2031,1.2037,1.2048,1.2053,1.2067,1.2074,1.2083,1.2089,1.2092,1.2096,1.2098,1.2095,1.2095,1.2098,1.2099,1.2103,1.2103,1.2103,1.2103,0,1.1946,1.1959,1.1969,1.1986,1.199,1.1994,1.2008,1.2013,1.2022,1.203,1.2033,1.2046,1.2055,1.2067,1.2079,1.2084,1.209,1.2093,1.2086,1.2087,1.2086,1.2086,1.2082,1.2081,1.2092,1.2092,1.2092,0,1.1945,1.195,1.1967,1.1972,1.198,1.1988,1.1995,1.2007,1.2013,1.2027,1.203,1.204,1.2048,1.2062,1.2072,1.2081,1.2085,1.2083,1.2086,1.2083,1.2084,1.2084,1.2084,1.2082,1.2081,1.2081,1.2081,0,1.194,1.1946,1.1955,1.1966,1.1974,1.1983,1.1993,1.1996,1.201,1.2016,1.2026,1.2032,1.2045,1.2054,1.2065,1.2071,1.2078,1.208,1.208,1.2077,1.2073,1.2075,1.2083,1.208,1.208,1.208,1.208,1.208,1.1934,1.1939,1.1952,1.1961,1.197,1.1978,1.1984,1.1993,1.2002,1.2013,1.202,1.2029,1.2039,1.2054,1.206,1.2067,1.207,1.207,1.207,1.207,1.2069,1.2072,1.2069,1.2069,1.2069,1.2069,1.2069,0,1.193,1.1938,1.1947,1.196,1.1968,1.1974,1.1984,1.199,1.1998,1.2007,1.2015,1.2025,1.2034,1.2045,1.2054,1.2057,1.2061,1.2059,1.2059,1.206,1.2066,1.2065,1.2056,1.2056,1.2056,1.2056,1.2056,1.2056,1.1929,1.1937,1.1944,1.1956,1.1964,1.1973,1.1979,1.1986,1.1994,1.2005,1.2012,1.2019,1.2029,1.2039,1.2047,1.205,1.2052,1.205,1.2054,1.2059,1.206,1.2061,1.206,1.205,1.205,1.2047,1.2047,1.2047]},{"header":{"parameterUnit":"m.s-1","parameterCategory":1,"la1":30.2991,"la2":30.254,"lo1":-89.0895,"lo2":-89.0444,"dy":0.0017,"dx":0.0017,"nx":28,"ny":28,"refTime":"2024-06-15T03:00:00:Z","depth":0,"parameterNumber":3,"parameterNumberName":"V-component_of_WINDS"},"data":[0,0,0,0,0,0,0,0,0,0,0,0,0,0,0,0,0,0,0,0,0,0,0,0,0,0,0,0,0,0,0,0,0,0,0,0,0,0,0,0,0,0,0,0,0,0,0,0,0,0,0,0,0,0,0,0,0,0,-0.9847,-0.9847,0,-0.986,-0.986,-0.986,-0.9848,-0.9847,-0.9847,-0.9846,-0.9858,-0.9859,-0.986,0,0,0,0,0,0,0,0,0,0,0,0,0,-0.9813,-0.9813,-0.9847,-0.9847,-0.9847,-0.9859,-0.986,-0.986,-0.9848,-0.9847,-0.9847,-0.9846,-0.9858,-0.9859,-0.986,0,0,0,0,0,0,0,0,0,0,0,0,0,-0.9827,-0.9814,-0.9847,-0.9843,-0.9843,-0.9859,-0.986,-0.986,-0.9848,-0.9847,-0.9846,-0.9846,-0.9858,-0.9859,-0.986,-0.9882,0,0,-0.9864,-0.9864,0,0,0,0,0,0,0,0,-0.9826,-0.9828,-0.9843,-0.9843,-0.9843,-0.9851,-0.9852,-0.9867,-0.9848,-0.9846,-0.9846,-0.9845,-0.9857,-0.9858,-0.9862,-0.9882,-0.9883,-0.9864,-0.9864,-0.9865,-0.9865,0,0,0,0,0,0,0,-0.9825,-0.9827,-0.9852,-0.9844,-0.9843,-0.984,-0.9841,-0.9855,-0.9855,-0.9846,-0.9845,-0.9847,-0.9856,-0.9861,-0.9862,-0.9883,-0.9864,-0.9865,-0.9865,-0.9866,-0.9922,-0.9923,0,0,0,0,0,0,-0.9824,-0.9827,-0.9852,-0.9852,-0.9832,-0.9841,-0.9843,-0.9849,-0.9855,-0.9855,-0.9847,-0.9846,-0.9859,-0.9861,-0.9862,-0.9888,-0.9865,-0.9866,-0.9867,-0.9921,-0.9922,-0.9923,0,0,0,0,0,0,-0.9824,-0.9827,-0.9851,-0.9839,-0.9842,-0.9843,-0.985,-0.985,-0.9854,-0.9856,-0.9856,-0.9852,-0.9858,-0.9861,-0.9877,-0.9888,-0.9867,-0.9868,-0.992,-0.9921,-0.9922,-0.9939,0,0,0,0,0,0,-0.9823,-0.9827,-0.9835,-0.984,-0.9843,-0.9866,-0.9851,-0.9851,-0.9856,-0.9855,-0.986,-0.986,-0.9858,-0.9875,-0.9878,-0.9889,-0.9868,-0.9919,-0.9921,-0.9922,-0.9938,-0.9941,-0.9943,0,0,0,0,0,-0.9822,-0.9839,-0.9835,-0.9838,-0.9853,-0.9866,-0.9868,-0.9866,-0.9857,-0.9865,-0.9867,-0.986,-0.9887,-0.9877,-0.988,-0.9892,-0.9918,-0.992,-0.9922,-0.9936,-0.994,-0.9943,0,0,0,0,0,0,-0.9835,-0.9839,-0.9835,-0.9855,-0.986,-0.9864,-0.9875,-0.987,-0.9878,-0.9876,-0.9872,-0.9873,-0.9891,-0.9893,-0.9882,-0.9913,-0.9901,-0.9904,-0.9911,-0.9915,-0.9917,-0.9916,-0.9869,0,0,0,0,0,-0.984,-0.9851,-0.9854,-0.9871,-0.9874,-0.9874,-0.9879,-0.9877,-0.9883,-0.9885,-0.9887,-0.9893,-0.9902,-0.9909,-0.9917,-0.9938,-0.9939,-0.9948,-0.995,-0.9953,-0.9955,-0.9966,-0.997,-0.9929,-0.9929,-0.9929,0,0,-0.9851,-0.9855,-0.9862,-0.9874,-0.9878,-0.9889,-0.9876,-0.9888,-0.9896,-0.9887,-0.9902,-0.9904,-0.991,-0.9929,-0.9937,-0.9931,-0.9967,-0.9955,-0.9957,-0.9958,-0.9968,-0.9972,-0.9976,-0.993,-0.993,-0.9929,0,0,-0.9877,-0.988,-0.9895,-0.9899,-0.9906,-0.9906,-0.9909,-0.9914,-0.9915,-0.9931,-0.9924,-0.9934,-0.995,-0.9955,-0.9959,-0.9987,-0.9981,-0.999,-1.0005,-1.0016,-1.0019,-1.0022,-1.0032,-1.0036,-0.9992,-0.9992,-0.9992,0,-0.9889,-0.9906,-0.9903,-0.9916,-0.9921,-0.9913,-0.9928,-0.9932,-0.9941,-0.9945,-0.9939,-0.9959,-0.9963,-0.9982,-0.9989,-0.9993,-0.9997,-0.9989,-1.0019,-1.0022,-1.0025,-1.0034,-1.0038,-0.9993,-0.9993,-0.9993,-0.9993,0,-0.9921,-0.9932,-0.9943,-0.9952,-0.9959,-0.9973,-0.9972,-0.9979,-0.9976,-0.9977,-0.9993,-0.9997,-1.0007,-1.0011,-1.0008,-1.0031,-1.0027,-1.002,-1.0007,-1.003,-1.0038,-1.0042,-0.9995,-0.9994,-0.9994,-0.9994,0,0,-0.9955,-0.9962,-0.9966,-0.9971,-0.9977,-0.9986,-0.9999,-1.0009,-1.0015,-1.0022,-1.0033,-1.0047,-1.0041,-1.0046,-1.0044,-1.0054,-1.0075,-1.0045,-1.0045,-1.0051,-1.01,-1.0105,-1.0109,-1.0072,-1.0072,-1.0073,-1.01,0,-0.998,-1.0003,-1.0002,-1.0024,-1.0034,-1.0027,-1.0039,-1.0044,-1.0046,-1.0055,-1.0056,-1.0066,-1.0057,-1.006,-1.0069,-1.0071,-1.0085,-1.0069,-1.0082,-1.0082,-1.008,-1.0114,-1.0119,-1.0144,-1.0103,-1.0103,-1.0104,0,-1.0013,-1.0021,-1.0044,-1.005,-1.0054,-1.0064,-1.0073,-1.0082,-1.0088,-1.0088,-1.0094,-1.0091,-1.0104,-1.0092,-1.011,-1.0099,-1.0105,-1.0106,-1.0107,-1.0108,-1.0094,-1.0116,-1.0152,-1.0156,-1.0109,-1.0109,-1.0108,0,-1.0035,-1.0052,-1.0068,-1.0072,-1.0078,-1.0086,-1.0089,-1.0095,-1.0101,-1.0108,-1.0112,-1.0121,-1.0126,-1.0134,-1.0132,-1.0124,-1.0151,-1.0139,-1.0152,-1.0152,-1.0158,-1.0157,-1.0195,-1.0161,-1.0161,-1.0161,-1.0161,0,-1.0064,-1.0078,-1.0078,-1.0088,-1.0104,-1.0102,-1.0118,-1.012,-1.0125,-1.0135,-1.013,-1.0139,-1.0137,-1.0147,-1.0146,-1.0161,-1.0164,-1.0164,-1.0164,-1.0164,-1.0164,-1.0168,-1.0166,-1.0162,-1.0162,-1.0162,-1.0162,0,-1.0092,-1.0092,-1.0109,-1.0114,-1.0116,-1.0127,-1.0132,-1.0141,-1.0142,-1.0155,-1.0158,-1.0159,-1.017,-1.017,-1.0182,-1.0181,-1.02,-1.0198,-1.0199,-1.0198,-1.0211,-1.021,-1.0252,-1.0258,-1.022,-1.0221,-1.0221,0,-1.011,-1.0121,-1.0127,-1.0134,-1.0137,-1.0148,-1.0154,-1.0153,-1.0159,-1.0167,-1.0176,-1.0186,-1.0195,-1.0213,-1.0215,-1.0224,-1.0222,-1.0236,-1.0223,-1.0224,-1.0222,-1.0221,-1.0223,-1.0239,-1.0239,-1.0239,-1.024,0,-1.0142,-1.0142,-1.0151,-1.0161,-1.0169,-1.0176,-1.0183,-1.0188,-1.0187,-1.0195,-1.0207,-1.0213,-1.0226,-1.0237,-1.0246,-1.0249,-1.0244,-1.0244,-1.0247,-1.0248,-1.0248,-1.0248,-1.0205,-1.0243,-1.0243,-1.0242,-1.0242,-1.0242,-1.0166,-1.0175,-1.0181,-1.0192,-1.0197,-1.0203,-1.0213,-1.0215,-1.0224,-1.0235,-1.0233,-1.0246,-1.0252,-1.0264,-1.0268,-1.0278,-1.0273,-1.0278,-1.0279,-1.028,-1.0282,-1.0247,-1.0279,-1.0279,-1.0279,-1.0279,-1.0279,0,-1.0198,-1.0201,-1.0211,-1.0221,-1.0229,-1.0225,-1.0232,-1.0239,-1.0251,-1.0257,-1.0265,-1.0278,-1.0289,-1.0292,-1.0302,-1.0309,-1.0307,-1.0312,-1.0311,-1.0312,-1.0286,-1.0282,-1.0313,-1.0313,-1.0313,-1.0313,-1.0313,-1.0313,-1.0215,-1.0231,-1.0232,-1.025,-1.0254,-1.0266,-1.0271,-1.0277,-1.0282,-1.0297,-1.0306,-1.0308,-1.0312,-1.0323,-1.0332,-1.0333,-1.0337,-1.0342,-1.0342,-1.0317,-1.0314,-1.0311,-1.0307,-1.0343,-1.0343,-1.0367,-1.0368,-1.0368]}]]